Location: Croagnes
(43.9363°N, 5.3265°E)
Time: 23:57:58
(UTC+00:00)

Daily predictions for brighter satellites

Satellite Brightness Start Highest point End
(mag) Time Altitude Azimuth Time Altitude Azimuth Time Altitude Azimuth
STARLINK-1144 3.7 19:45:30 10° WNW 19:49:39 78° SW 19:53:47 10° SE
STARLINK-60 2.8 19:47:04 10° SW 19:50:13 79° SE 19:53:23 10° ENE
SPOT 3 Rocket 3.6 19:45:41 10° SSE 19:50:50 86° ENE 19:56:02 10° NNW
Meteor 1-13 Rocket 4.3 19:45:22 10° S 19:51:02 89° E 19:56:52 10° N
SL-8 R/B 3.8 19:46:35 10° WNW 19:51:23 73° SSW 19:56:10 10° SE
CZ-2C R/B 2.8 19:46:03 10° NNE 19:51:43 81° ESE 19:57:18 10° SSW
ARGOS 4.3 19:47:17 10° S 19:52:24 44° W 19:57:33 10° NNW
STARLINK-1103 3.7 19:50:29 10° WNW 19:54:37 72° SW 19:58:44 10° SE
SL-27 R/B 4.3 19:54:21 10° NNE 19:56:54 18° ENE 19:59:25 10° ESE
H-2A R/B 3.9 19:52:58 10° SSW 19:57:28 31° W 20:02:06 10° NNW
STARLINK-1101 3.8 19:55:29 10° WNW 19:59:35 66° SW 20:03:41 10° SE
Cosmos 1943 Rocket 2.4 19:55:22 10° S 20:00:38 47° ESE 20:05:59 10° NE
STARLINK-1102 3.9 20:00:28 10° WNW 20:04:33 60° SW 20:08:37 10° SE
NOSS 2-2 (C) 3.6 20:03:30 10° SW 20:07:01 66° NW 20:10:55 10° NNE
STARLINK-1111 4.0 20:05:30 10° WNW 20:09:33 55° SW 20:13:26 11° SE
ATLAS 2AS CENTAUR R/B 3.5 20:05:55 10° S 20:13:01 38° ESE 20:20:11 10° NE
SL-4 R/B 2.3 20:09:01 10° SW 20:13:40 84° SSE 20:18:31 10° ENE
STARLINK-1188 4.5 20:11:25 10° NW 20:14:19 30° NNE 20:17:13 10° E
STARLINK-1073 4.1 20:10:29 10° WNW 20:14:30 50° SW 20:18:12 12° SSE
NOSS 3-2 (A) 4.2 20:07:15 10° NW 20:14:49 75° NE 20:22:52 12° SE
STARLINK-1191 4.4 20:14:00 10° NW 20:16:55 31° NNE 20:19:49 10° E
STARLINK-1221 4.4 20:15:14 10° NW 20:18:09 32° NNE 20:21:05 10° E
Lacrosse 5 4.3 20:16:59 10° W 20:19:11 13° WSW 20:21:24 10° SW
STARLINK-1222 4.4 20:16:25 10° NW 20:19:21 32° NNE 20:22:17 10° E
STARLINK-1121 4.3 20:15:28 10° WNW 20:19:26 46° SW 20:22:58 13° SSE
Landsat 7 4.4 20:15:51 11° SE 20:20:09 45° ENE 20:24:41 10° N
Cosmos 1242 Rocket 4.4 20:18:27 12° ESE 20:20:13 16° E 20:22:33 10° NE
STARLINK-1214 4.3 20:17:38 10° NW 20:20:37 33° NNE 20:23:35 10° E
STARLINK-29 2.8 20:19:38 10° SW 20:22:51 75° SE 20:26:04 10° ENE
Cosmos 1437 Rocket 4.0 20:19:19 10° SSW 20:22:56 42° WNW 20:26:38 10° N
ERS-1 Rocket 4.1 20:19:08 11° SE 20:23:12 31° ENE 20:27:36 10° N
STARLINK-1106 4.4 20:20:29 10° WNW 20:24:24 42° SW 20:27:45 13° SSE
Okean 1 Rocket 3.1 20:21:51 10° N 20:26:19 89° E 20:30:42 10° S
Cosmos 1455 Rocket 4.3 20:22:58 10° NNE 20:26:38 26° ENE 20:29:27 14° ESE
USA 238 DEB 3.9 20:22:37 10° NW 20:29:53 86° NE 20:36:27 14° SE
USA 238 3.9 20:22:43 10° NW 20:29:59 86° NE 20:36:34 14° SE
STARLINK-1209 3.8 20:27:44 10° NW 20:31:12 52° NNE 20:34:08 14° ESE
Cosmos 2082 Rocket 4.1 20:26:41 10° NW 20:31:15 25° WSW 20:35:47 10° SSW
IGS 5A 3.7 20:29:40 14° SSE 20:33:03 56° ENE 20:37:09 10° N
ATLAS CENTAUR R/B 2.3 20:29:21 10° S 20:33:15 30° ESE 20:36:57 10° NE
MetOp-B 4.1 20:28:19 10° SSE 20:33:40 87° ENE 20:39:03 10° NNW
Cosmos 968 Rocket 4.4 20:29:29 10° N 20:34:13 35° ENE 20:37:57 15° ESE
Okean 2 3.7 20:30:50 12° SSE 20:34:31 47° E 20:38:32 10° NNE
Cosmos 2369 Rocket 2.2 20:30:21 10° S 20:35:56 65° ESE 20:41:32 10° NNE
STARLINK-1320 3.8 20:35:54 10° SSW 20:38:36 27° SE 20:41:18 10° ENE
STARLINK-1322 3.7 20:36:14 10° SSW 20:38:57 27° SE 20:41:40 10° ENE
STARLINK-1324 3.7 20:36:32 10° SSW 20:39:15 28° SE 20:41:59 10° ENE
STARLINK-1294 3.7 20:36:53 10° SSW 20:39:34 28° SE 20:42:17 10° ENE
Cosmos 1867 4.4 20:34:40 10° NNW 20:39:50 40° NE 20:44:11 14° ESE
STARLINK-1261 3.7 20:37:13 10° SSW 20:39:57 28° SE 20:42:41 10° ENE
STARLINK-1325 3.7 20:37:33 10° SSW 20:40:17 28° SE 20:43:02 10° ENE
STARLINK-1333 3.7 20:37:56 10° SSW 20:40:40 28° SE 20:43:24 10° ENE
STARLINK-1334 3.7 20:38:12 10° SSW 20:40:57 29° SE 20:43:42 10° ENE
STARLINK-1326 3.7 20:38:31 10° SSW 20:41:16 29° SE 20:44:01 10° ENE
STARLINK-1187 3.6 20:38:08 10° NW 20:41:25 51° NNE 20:43:50 16° ESE
STARLINK-1323 3.7 20:38:53 10° SSW 20:41:39 29° SE 20:44:25 10° ENE
STARLINK-1349 3.7 20:39:11 10° SSW 20:41:56 29° SE 20:44:42 10° ENE
STARLINK-1336 3.6 20:39:31 10° SSW 20:42:16 29° SE 20:45:02 10° ENE
STARLINK-1331 3.6 20:39:53 10° SSW 20:42:38 30° SE 20:45:25 10° ENE
STARLINK-1344 3.6 20:40:11 10° SSW 20:42:57 30° SE 20:45:44 10° ENE
STARLINK-1343 3.6 20:40:32 10° SSW 20:43:19 30° SE 20:46:06 10° ENE
Cosmos 1766 3.3 20:39:21 10° N 20:43:22 75° E 20:46:20 17° SSE
STARLINK-1346 3.6 20:40:49 10° SSW 20:43:36 30° SE 20:46:26 10° ENE
STARLINK-1328 3.6 20:41:14 10° SSW 20:44:02 31° SE 20:46:50 10° ENE
STARLINK-1354 3.6 20:41:32 10° SSW 20:44:19 31° SE 20:47:08 10° ENE
STARLINK-1347 3.6 20:41:49 10° SSW 20:44:37 31° SE 20:47:25 10° ENE
STARLINK-1357 3.6 20:42:13 10° SSW 20:45:02 31° SE 20:47:51 10° ENE
STARLINK-1335 3.6 20:42:31 10° SSW 20:45:19 31° SE 20:48:08 10° ENE
STARLINK-1234 3.5 20:41:45 10° NW 20:45:20 63° NNE 20:47:47 18° ESE
STARLINK-1327 3.5 20:42:51 10° SSW 20:45:40 32° SE 20:48:29 10° ENE
STARLINK-1340 3.5 20:43:09 10° SSW 20:45:58 32° SE 20:48:48 10° ENE
STARLINK-1356 3.5 20:43:32 10° SSW 20:46:21 32° SE 20:49:11 10° ENE
STARLINK-1345 3.5 20:43:50 10° SSW 20:46:40 32° SE 20:49:30 10° ENE
STARLINK-1355 3.5 20:44:11 10° SSW 20:47:01 33° SE 20:49:51 10° ENE
STARLINK-1321 3.5 20:44:31 10° SSW 20:47:21 33° SE 20:50:12 10° ENE
STARLINK-1358 3.5 20:44:54 10° SSW 20:47:44 33° SE 20:50:35 10° ENE
STARLINK-1332 3.5 20:45:11 10° SSW 20:48:01 33° SE 20:50:53 10° ENE
STARLINK-1348 3.5 20:45:30 10° SSW 20:48:21 34° SE 20:51:13 10° ENE
STARLINK-1330 3.4 20:45:50 10° SSW 20:48:41 34° SE 20:51:34 10° ENE
STARLINK-1363 3.4 20:46:09 10° SSW 20:49:01 34° SE 20:51:53 10° ENE
Nadezhda 4 Rocket 4.2 20:42:55 10° SSW 20:49:02 72° W 20:55:10 10° N
STARLINK-1337 3.4 20:46:31 10° SSW 20:49:24 34° SE 20:52:16 10° ENE
STARLINK-1338 4.2 20:46:03 10° SSW 20:49:33 31° SE 20:53:05 10° ENE
STARLINK-1342 3.4 20:46:50 10° SSW 20:49:42 35° SE 20:52:36 10° ENE
STARLINK-1364 3.4 20:47:10 10° SSW 20:50:03 35° SE 20:52:56 10° ENE
STARLINK-1376 3.4 20:47:30 10° SSW 20:50:23 35° SE 20:53:16 10° ENE
STARLINK-1228 3.4 20:46:59 10° NW 20:50:40 70° NNE 20:53:01 21° ESE
STARLINK-1360 3.4 20:47:50 10° SSW 20:50:43 35° SE 20:53:37 10° ENE
STARLINK-1361 3.4 20:48:11 10° SSW 20:51:03 36° SE 20:53:57 10° ENE
STARLINK-1367 3.4 20:48:27 10° SSW 20:51:20 36° SE 20:54:15 10° ENE
STARLINK-1366 3.3 20:48:49 10° SSW 20:51:43 36° SE 20:54:37 10° ENE
Resurs 01 Rocket 3.1 20:48:59 10° SSW 20:53:02 34° W 20:57:06 10° NNW
USA 245 2.4 20:52:38 24° S 20:53:57 64° WSW 20:56:17 10° NNW
STARLINK-1371 4.0 20:54:18 10° SSW 20:57:57 36° SE 21:01:36 10° ENE
STARLINK-52 3.5 20:55:01 10° WSW 20:58:12 60° NNW 21:01:24 10° NE
SPOT 5 3.3 20:57:53 20° SE 21:01:27 59° ENE 21:06:43 10° N
Spot 2 Rocket 3.8 20:57:36 14° S 21:01:51 64° WSW 21:06:53 10° NNW
STARLINK-1341 3.9 20:58:29 10° SSW 21:02:13 39° SE 21:05:58 10° ENE
Cosmos 1378 4.2 20:58:56 10° SSW 21:02:29 43° WNW 21:06:03 10° N
Cosmos 1544 Rocket 4.0 21:00:05 10° N 21:04:16 46° ENE 21:06:25 25° SE
CENTAUR R/B 3.2 20:56:27 10° NW 21:04:35 84° NE 21:11:10 20° SE
BREEZE-M DEB 2.8 21:02:26 10° WSW 21:04:48 71° NNW 21:10:17 10° ENE
Terra 2.4 21:02:43 22° SE 21:05:25 45° ENE 21:09:57 10° N
STARLINK-1374 3.8 21:02:41 10° SSW 21:06:27 42° SE 21:10:14 10° ENE
STARLINK-1339 3.7 21:06:55 10° SSW 21:10:44 46° SE 21:14:35 10° ENE
ATLAS 3B R/B 3.3 21:06:18 10° NNW 21:12:52 49° NE 21:18:07 17° ESE
Cosmos 1726 3.9 21:11:01 10° NNE 21:13:45 19° ENE 21:14:42 17° E
STARLINK-1377 3.6 21:11:11 10° SW 21:15:02 50° SE 21:18:55 10° ENE
APEX 4.4 21:12:03 10° SSW 21:18:26 73° WNW 21:23:37 10° NNE
Cosmos 1503 Rocket 4.2 21:13:25 10° NNW 21:18:43 62° ENE 21:21:37 27° SE
STARLINK-1353 3.5 21:15:26 10° SW 21:19:19 54° SE 21:23:14 10° ENE
Cosmos 1470 2.8 21:17:54 10° N 21:21:45 61° E 21:23:07 36° SE
BREEZE-M DEB (TANK) 4.3 21:03:34 10° WSW 21:21:55 72° NNW 21:26:16 10° ENE
STARLINK-1375 3.5 21:19:43 10° SW 21:23:38 59° SE 21:27:36 10° ENE
BREEZE-M DEB (TANK) 3.6 21:14:49 10° SW 21:24:44 39° SSE 21:28:23 10° E
FALCON 9 DEB 3.7 21:21:23 10° WSW 21:24:46 59° NNW 21:28:10 10° NE
Cosmos 1733 4.2 21:22:03 10° NNW 21:25:38 41° W 21:27:51 20° SSW
BREEZE-M DEB (TANK) 4.2 21:23:31 10° WNW 21:27:27 40° N 21:30:55 10° ENE
Cosmos 1174 3.2 21:26:27 34° SSW 21:27:43 75° ESE 21:31:24 10° NE
STARLINK-1350 3.4 21:24:00 10° SW 21:27:57 63° SE 21:31:55 10° ENE
NOSS 3-2 (C) 4.2 21:20:21 10° NW 21:27:58 69° WSW 21:33:29 24° SSE
SeaSat 1 4.4 21:26:07 10° ENE 21:27:48 13° E 21:27:48 13° E
STARLINK-1154 4.5 21:24:42 10° NW 21:28:42 45° NNE 21:31:22 19° E
COSMOS 2455 2.8 21:23:33 12° SSW 21:29:08 65° ESE 21:35:07 10° NE
STARLINK-1235 3.3 21:26:02 10° WNW 21:29:26 57° SW 21:30:06 47° S
Cosmos 1340 Rocket 4.0 21:27:23 10° N 21:31:04 31° ENE 21:32:10 27° ESE
ATLAS 3B CENTAUR R/B 4.1 21:18:28 10° WSW 21:31:31 31° SSW 21:35:20 23° SSE
Cosmos 1842 4.1 21:28:38 15° SSW 21:31:37 46° WNW 21:35:23 10° N
SL-27 R/B 4.0 21:28:57 10° NW 21:32:03 29° WSW 21:33:33 21° SW
Cosmos 1025 Rocket 3.1 21:30:38 35° SSE 21:32:14 60° E 21:36:30 10° NNE
STARLINK-1352 3.4 21:28:19 10° SW 21:32:16 69° SE 21:36:16 10° ENE
STARLINK-1197 4.4 21:29:41 10° NW 21:33:43 48° NNE 21:36:10 21° E
SPOT 1/Viking Rocket 4.3 21:30:30 18° SSW 21:34:05 45° W 21:39:01 10° NNW
Cosmos 1975 Rocket 4.2 21:30:51 10° SSW 21:35:00 42° WNW 21:39:11 10° N
COSMOS 2487 2.9 21:32:15 10° N 21:35:36 45° ENE 21:36:14 39° E
NOSS 3-4 (A) 3.5 21:29:42 10° SW 21:35:37 80° NW 21:41:58 10° NE
NOSS 3-4 (C) 3.5 21:29:47 10° SW 21:35:43 81° NW 21:42:04 10° NE
STARLINK-1368 3.4 21:32:43 10° SW 21:36:43 74° SE 21:40:44 10° ENE
STARLINK-1212 3.0 21:34:37 10° WNW 21:37:42 55° SW 21:37:48 54° SSW
STARLINK-1105 3.1 21:35:17 10° WNW 21:38:24 54° SW 21:38:31 54° SSW
STARLINK-1198 4.3 21:34:39 10° NW 21:38:43 51° NNE 21:40:57 24° E
STARLINK-1247 3.1 21:36:23 10° WNW 21:39:31 53° SW 21:39:38 53° SSW
STARLINK-1227 3.1 21:37:01 10° WNW 21:40:08 52° SW 21:40:12 52° SW
STARLINK-1369 3.4 21:37:07 10° SW 21:41:07 80° SE 21:45:09 10° ENE
Cosmos 1354 Rocket 4.0 21:35:52 10° NNW 21:41:13 85° ENE 21:43:37 34° SSE
STARLINK-1226 3.2 21:38:11 10° WNW 21:41:17 51° SW 21:41:19 51° SW
STARLINK-1215 3.2 21:39:15 10° WNW 21:42:23 50° SW 21:42:23 50° SW
RESURS DK-1 2.9 21:42:39 38° ESE 21:42:53 38° ESE 21:46:45 10° NE
ATLAS 5 CENTAUR R/B 1.8 21:36:18 10° SSW 21:43:04 63° SE 21:45:39 10° NE
MTI 3.5 21:40:13 10° NNE 21:43:22 80° ESE 21:43:38 70° SSE
STARLINK-1199 4.1 21:39:37 10° NW 21:43:42 55° NNE 21:45:43 27° E
Cosmos 1943 Rocket 4.1 21:39:47 10° WSW 21:44:35 29° NW 21:49:27 10° N
STARLINK-1217 3.4 21:41:33 10° WNW 21:44:35 47° SW 21:44:35 47° SW
Cosmos 1271 Rocket 2.9 21:42:55 31° SSW 21:44:41 69° W 21:48:39 10° N
STARLINK-1372 3.4 21:41:28 10° SW 21:45:28 86° SSE 21:49:30 10° NE
STARLINK-1229 3.4 21:42:40 10° WNW 21:45:38 46° SW 21:45:38 46° SW
Cosmos 1953 2.6 21:42:38 10° N 21:46:32 51° ENE 21:47:21 43° ESE
Cosmos 1992 Rocket 4.3 21:42:02 12° SSW 21:46:45 68° WNW 21:51:58 10° NNE
STARLINK-1270 3.5 21:43:44 10° WNW 21:46:39 44° SW 21:46:39 44° SW
Cosmos 2297 Rocket 4.3 21:43:01 10° N 21:46:51 18° NE 21:50:41 10° E
Cosmos 1417 Rocket 4.5 21:40:30 10° N 21:46:53 84° E 21:50:16 30° S
STARLINK-1210 4.0 21:44:35 10° NW 21:48:42 59° NNE 21:50:30 30° E
STARLINK-1189 3.6 21:46:11 10° WNW 21:49:02 42° SW 21:49:02 42° SW
STARLINK-1378 3.4 21:45:54 10° SW 21:49:55 88° NW 21:53:58 10° NE
STARLINK-1188 3.7 21:47:25 10° WNW 21:50:12 40° WSW 21:50:12 40° WSW
STARLINK-1191 3.8 21:50:03 10° WNW 21:52:41 37° WSW 21:52:41 37° WSW
Cosmos 2228 4.4 21:49:40 10° NNE 21:53:10 24° ENE 21:54:03 23° E
STARLINK-1219 3.9 21:49:35 10° NW 21:53:43 63° NNE 21:55:19 34° E
SL-4 R/B 3.9 21:49:20 10° W 21:53:48 38° NNW 21:58:21 10° NE
STARLINK-1221 3.9 21:51:15 10° WNW 21:53:50 36° WSW 21:53:50 36° WSW
STARLINK-1379 3.5 21:50:22 10° WSW 21:54:23 82° NW 21:58:26 10° NE
Cosmos 1242 Rocket 4.2 21:52:26 16° SW 21:54:48 32° WNW 21:58:09 10° N
STARLINK-1222 4.0 21:52:30 10° WNW 21:55:02 34° WSW 21:55:02 34° WSW
Cosmos 1833 4.5 21:50:53 10° NNW 21:56:24 58° WSW 21:58:53 32° S
Cosmos 1707 2.8 21:55:20 41° SSW 21:56:35 71° W 22:00:28 10° N
STARLINK-1214 4.0 21:53:44 10° WNW 21:56:14 34° WSW 21:56:14 34° WSW
STARLINK-1329 3.6 21:54:06 10° WSW 21:58:08 78° NNW 22:02:11 10° NE
STARLINK-1211 3.8 21:54:33 10° NW 21:58:42 68° NNE 22:00:05 39° ESE
ERS-1 Rocket 4.2 21:59:08 20° SSW 22:01:55 34° W 22:06:29 10° NNW
STARLINK-1362 3.7 21:58:37 10° WSW 22:02:38 73° NNW 22:06:41 10° NE
Cosmos 1656 Rocket 4.4 21:57:58 10° SW 22:03:26 52° WNW 22:08:52 10° NNE
STARLINK-1245 3.7 21:59:31 10° NW 22:03:40 73° NNE 22:04:51 44° ESE
ATLAS 2AS CENTAUR R/B 3.6 21:55:54 10° SW 22:03:46 60° NW 22:11:38 10° NNE
EO 1 Del DPAF 3.7 22:01:24 10° NNE 22:04:56 42° E 22:04:56 42° E
Cosmos 1758 4.1 22:01:37 10° NNW 22:05:32 46° W 22:06:46 34° SW
Timation 2 Rocket 4.3 22:00:45 10° NNW 22:06:54 55° ENE 22:09:46 30° ESE
STARLINK-1373 3.8 22:03:09 10° WSW 22:07:11 68° NNW 22:11:13 10° NE
STARLINK-1233 3.6 22:04:30 10° NW 22:08:39 79° NNE 22:09:38 51° ESE
NOSS 5 (C) 4.5 22:05:23 10° NW 22:08:40 85° ENE 22:09:06 68° SE
STARLINK-1390 3.9 22:07:42 10° WSW 22:11:43 64° NNW 22:15:45 10° NE
ATLAS CENTAUR R/B 3.1 22:08:10 10° WSW 22:12:06 33° NW 22:15:51 10° NNE
BREEZE-M R/B 4.2 22:01:58 10° SW 22:13:12 66° SSE 22:18:14 10° ENE
STARLINK-1204 3.5 22:09:28 10° NW 22:13:38 85° NE 22:14:24 58° ESE
Meteor 1-16 Rocket 4.0 22:08:27 10° N 22:13:54 81° E 22:15:41 44° SSE
STARLINK-1320 4.4 22:11:22 10° W 22:14:19 38° NNW 22:17:17 10° NE
STARLINK-1322 4.4 22:11:44 10° W 22:14:40 38° NNW 22:17:38 10° NE
STARLINK-1324 4.4 22:12:03 10° W 22:14:59 37° NNW 22:17:56 10° NE
STARLINK-1294 4.4 22:12:23 10° W 22:15:18 37° NNW 22:18:15 10° NE
STARLINK-1261 4.4 22:12:45 10° W 22:15:41 37° NNW 22:18:38 10° NE
STARLINK-1325 4.4 22:13:06 10° W 22:16:02 37° NNW 22:18:59 10° NE
STARLINK-1333 4.4 22:13:29 10° W 22:16:24 37° NNW 22:19:21 10° NE
STARLINK-1334 4.4 22:13:46 10° W 22:16:42 36° NNW 22:19:37 10° NE
STARLINK-1326 4.4 22:14:06 10° W 22:17:01 36° NNW 22:19:57 10° NE
STARLINK-1323 4.5 22:14:29 10° W 22:17:24 36° NNW 22:20:20 10° NE
STARLINK-1365 4.1 22:13:32 10° WSW 22:17:33 58° NNW 22:21:37 10° NE
STARLINK-1349 4.5 22:14:46 10° W 22:17:42 36° NNW 22:20:38 10° NE
STARLINK-1336 4.5 22:15:07 10° W 22:18:02 36° NNW 22:20:57 10° NE
STARLINK-1331 4.5 22:15:30 10° W 22:18:24 36° NNW 22:21:20 10° NE
STARLINK-1238 3.5 22:14:27 10° NW 22:18:37 89° SSW 22:19:12 65° SE
STARLINK-1344 4.5 22:15:48 10° W 22:18:43 35° NNW 22:21:38 10° NE
S3M 4.1 22:13:09 10° NNW 22:19:19 70° W 22:22:10 34° SSW
Cosmos 2369 Rocket 4.5 22:16:03 10° W 22:20:27 23° NW 22:24:52 10° N
SJ 16-02 3.7 22:17:54 10° NNE 22:20:29 15° NE 22:22:33 11° E
Cosmos 1867 4.5 22:18:26 10° NW 22:23:21 35° WSW 22:24:50 30° SW
BREEZE-M DEB (TANK) 4.5 22:19:25 10° W 22:23:23 69° NNW 22:38:15 10° ENE
STARLINK-1201 3.4 22:19:27 10° WNW 22:23:36 82° SW 22:23:59 71° SSE
Cosmos 2315 Rocket 4.1 22:18:02 10° N 22:24:13 66° E 22:26:32 39° SSE
Cosmos 2227 Rocket 3.7 22:20:12 10° N 22:25:03 28° NE 22:28:22 17° E
STARLINK-1338 4.4 22:24:31 10° WSW 22:28:24 49° NNW 22:32:17 10° NE
STARLINK-1206 3.4 22:24:24 10° WNW 22:28:33 76° SW 22:28:44 74° S
Meteor 2-15 Rocket 4.4 22:23:16 10° N 22:29:25 73° E 22:31:36 42° SSE
STARLINK-1205 3.5 22:29:23 10° WNW 22:33:31 70° SW 22:33:31 70° SW
SL-14 R/B 4.5 22:36:22 29° ENE 22:36:22 29° ENE 22:39:21 10° NNE
Cosmos 2084 4.3 22:32:51 18° WSW 22:35:59 51° NW 22:40:22 10° NNE
Cosmos 1908 3.0 22:32:44 10° N 22:36:34 82° E 22:36:36 82° E
STARLINK-1218 3.6 22:34:23 10° WNW 22:38:19 63° SW 22:38:19 63° SW
Cosmos 1777 Rocket 3.9 22:33:17 10° NNW 22:38:34 84° WSW 22:39:51 52° S
KORONAS-FOTON 3.7 22:42:07 79° WSW 22:42:12 80° W 22:46:05 10° N
Terra 3.6 22:41:36 17° WSW 22:43:21 21° W 22:46:57 10° NW
STARLINK-1254 3.8 22:39:23 10° WNW 22:43:06 56° WSW 22:43:06 56° WSW
Meteor 2-5 Rocket 3.7 22:46:11 50° SSE 22:47:39 74° E 22:53:19 10° NNE
Thor Agena Rocket 3.8 22:42:25 10° N 22:47:40 65° WNW 22:49:40 37° SW
STARLINK-1231 4.0 22:44:23 10° WNW 22:47:53 49° WSW 22:47:53 49° WSW
Cosmos 1726 3.5 22:45:44 10° NNW 22:48:59 28° W 22:49:12 28° W
Cosmos 1300 3.7 22:45:43 10° N 22:49:12 35° ENE 22:49:12 35° ENE
Cosmos 2266 Rocket 4.4 22:47:46 30° SW 22:50:39 55° WNW 22:56:36 10° N
STARLINK-1246 4.5 22:46:40 10° NW 22:50:41 47° NNE 22:52:19 30° E
USA 215 4.4 22:44:57 10° E 22:51:02 42° NNE 22:57:05 10° NW
Cosmos 2292 Rocket 4.1 22:51:50 33° WNW 22:51:50 33° WNW 22:54:32 10° NNW
STARLINK-1232 4.3 22:49:25 10° WNW 22:52:41 43° WSW 22:52:41 43° WSW
Cosmos 1674 3.1 22:53:26 50° W 22:53:37 51° W 22:57:20 10° N
CENTAUR R/B 4.4 22:48:09 10° WNW 22:54:47 27° WSW 22:58:21 21° SW
STARLINK-1224 4.4 22:51:37 10° NW 22:55:40 50° NNE 22:57:05 34° E
STARLINK-1208 4.5 22:54:25 10° WNW 22:57:28 38° WSW 22:57:28 38° WSW
STARLINK-1225 4.2 22:56:36 10° NW 23:00:41 54° NNE 23:01:52 39° E
ATLAS 3B R/B 3.4 22:57:12 10° NW 23:03:28 40° WSW 23:05:21 34° SSW
FALCON 9 R/B 4.5 23:08:52 17° ESE 23:08:52 17° ESE 23:11:48 10° ESE
STARLINK-1230 4.1 23:01:33 10° NW 23:05:39 57° NNE 23:06:38 44° E
SeaSat 1 2.4 23:01:26 10° NNE 23:06:24 87° WNW 23:07:34 53° SSW
Meteor 2-21 4.4 23:04:49 47° S 23:06:44 83° E 23:12:58 10° N
Cosmos 1606 Rocket 3.9 23:03:53 10° NNW 23:08:05 50° W 23:08:26 48° WSW
Cosmos 2058 Rocket 2.9 23:05:02 10° N 23:09:32 84° E 23:09:53 75° SSE
Cosmos 1980 Rocket 3.9 23:10:05 17° ESE 23:10:31 17° E 23:14:03 10° ENE
STARLINK-1243 4.0 23:06:33 10° NW 23:10:40 61° NNE 23:11:26 50° E
Helios 1B rocket 4.3 23:11:15 10° NE 23:14:04 20° E 23:14:04 20° E
Cosmos 1244 Rocket 4.4 23:12:34 47° S 23:14:29 90° ESE 23:20:41 10° N
Cosmos 468 Rocket 4.4 23:14:13 42° ESE 23:14:35 43° ESE 23:19:26 10° NNE
ALOS 2 2.5 23:14:35 72° SW 23:14:51 76° WSW 23:19:16 10° NNW
STARLINK-1236 3.9 23:11:31 10° NW 23:15:38 66° NNE 23:16:12 58° ENE
Cosmos 1745 Rocket 4.4 23:16:47 40° SE 23:18:27 50° E 23:24:20 10° NNE
Cosmos 1626 2.4 23:20:51 64° NW 23:20:51 64° NW 23:24:14 10° N
Cosmos 2369 4.4 23:20:09 36° ESE 23:20:45 37° ESE 23:25:54 10° NE
ERBS 3.7 23:18:58 10° NNW 23:22:03 34° NE 23:22:16 34° NE
Cosmos 1455 4.2 23:22:05 10° NNE 23:24:47 19° ENE 23:25:11 18° E
STARLINK-43 4.2 23:26:08 43° NE 23:26:08 43° NE 23:28:42 10° NE
STARLINK-1269 3.6 23:21:28 10° NW 23:25:37 77° NNE 23:25:46 75° ENE
Meteor 1-24 Rocket 3.7 23:27:06 48° SW 23:28:29 68° WNW 23:34:02 10° N
Cosmos 1656 3.6 23:27:54 55° SSW 23:29:13 83° ESE 23:34:50 10° NNE
Lacrosse 4 Rocket 2.3 23:26:03 10° NNW 23:30:11 44° NE 23:31:03 38° E
Cosmos 921 Rocket 4.0 23:29:32 33° W 23:30:30 38° WNW 23:34:37 10° N
STARLINK-1200 3.6 23:26:26 10° NW 23:30:32 82° NNE 23:30:32 82° NNE
Cosmos 2228 4.3 23:27:03 10° NNW 23:30:41 28° W 23:30:53 28° W
Cosmos 2297 Rocket 2.1 23:25:59 10° NNW 23:31:40 85° WSW 23:32:59 55° SSE
CZ-4C R/B 1.9 23:31:35 62° S 23:32:18 72° ESE 23:38:06 10° NE
SL-08 R/B 4.4 23:31:05 48° S 23:33:02 89° E 23:39:25 10° N
Cosmos 1898 Rocket 3.8 23:28:26 10° NNW 23:33:43 61° ENE 23:35:13 43° ESE
SL-4 R/B 4.1 23:30:00 10° WNW 23:34:25 34° N 23:38:48 10° ENE
Cosmos 1602 Rocket 3.8 23:35:23 53° E 23:35:26 53° E 23:39:40 10° NNE
Cosmos 2219 3.2 23:29:57 10° NNW 23:35:33 65° WSW 23:36:34 54° SSW
STARLINK-1192 3.6 23:31:26 10° NW 23:35:20 79° NW 23:35:20 79° NW
Meteor 2-21 Rocket 4.5 23:36:06 46° SSW 23:38:02 74° W 23:44:16 10° N
STARLINK-1244 3.7 23:36:23 10° WNW 23:40:06 70° WNW 23:40:06 70° WNW
Cosmos 1386 Rocket 4.5 23:39:47 48° SSE 23:41:32 71° E 23:47:45 10° NNE
Cosmos 990 Rocket 4.0 23:38:07 10° NNW 23:43:24 77° ENE 23:44:35 54° SE
PSLV R/B 4.2 23:39:35 10° NNE 23:43:47 43° E 23:43:52 43° ESE
ATLAS CENTAUR R/B 2.5 23:42:00 10° NW 23:43:35 40° NNW 23:43:35 40° NNW
STARLINK-1138 3.8 23:41:22 10° WNW 23:44:52 61° WNW 23:44:52 61° WNW
Cosmos 2082 3.9 23:40:30 10° NNW 23:46:08 65° ENE 23:48:10 39° SE
Helios 1A 3.1 23:47:33 62° W 23:47:33 62° W 23:51:37 10° NNW
STARLINK-1143 4.0 23:46:22 10° WNW 23:49:40 53° WNW 23:49:40 53° WNW
EO 1 Delta rocket 4.0 23:47:55 10° N 23:53:01 65° WNW 23:53:51 54° SW
Meteor 2-1 Rocket 4.2 23:48:33 10° N 23:54:09 80° E 23:55:37 51° SSE
STARLINK-1241 4.2 23:51:22 10° WNW 23:54:27 46° W 23:54:27 46° W
